This demonstration page uses our WeatherBlox Daily Observations layout. Learn more.

Left ArrowRight Arrow

Hourly Observations for March 26, 2019

Temp ( °F °C ) Dew Point ( °F °C ) Humidity (%) Winds ( mph kmh ) Pressure ( in mb ) Visibility ( mi km ) Precip ( " mm )
12:54 am 00:54 Partly Cloudy with Mist and Fog 37 2.8 35 1.7 93 93 Calm 30.37 1029 6 10 0.00 0.00
1:54 am 01:54 Mostly Cloudy with Mist and Fog 37 2.8 34 1.1 89 89 Calm 30.37 1029 6 10 0.00 0.00
2:54 am 02:54 Mostly Cloudy with Mist and Fog 36 2.2 34 1.1 93 93 Calm 30.37 1029 4 6 0.00 0.00
3:54 am 03:54 Cloudy with Mist and Fog 39 3.9 36 2.2 89 89 N 3 6 30.37 1028 6 10 0.00 0.00
4:54 am 04:54 Cloudy 39 3.9 36 2.2 89 89 Calm 30.35 1028 7 11 0.00 0.00
5:54 am 05:54 Cloudy with Mist and Fog 40 4.4 36 2.2 86 86 Calm 30.36 1028 6 10 0.00 0.00
6:54 am 06:54 Cloudy 41 5 37 2.8 86 86 Calm 30.37 1029 7 11 0.00 0.03
7:54 am 07:54 Cloudy with Mist and Fog 41 5 38 3.3 89 89 S 5 7 30.38 1029 6 10 0.00 0.00
8:54 am 08:54 Cloudy 43 6.1 39 3.9 86 86 SE 7 11 30.38 1029 7 11 0.00 0.00
9:54 am 09:54 Partly Cloudy 48 8.9 40 4.4 74 74 SSE 12 19 30.37 1028 8 13 0.00 0.00
10:54 am 10:54 Partly Cloudy 52 11.1 41 5 66 66 SSE 14 22 30.35 1028 10 16 0.00 0.00
11:54 am 11:54 Mostly Cloudy 57 13.9 42 5.6 58 58 S 18 30 30.32 1027 9 14 0.00 0.00
12:54 pm 12:54 Mostly Sunny 60 15.6 43 6.1 53 53 S 15 24 30.29 1026 8 13 0.00 0.00
1:54 pm 13:54 Sunny 64 17.8 44 6.7 48 48 S 17 28 30.26 1025 10 16 0.00 0.00
2:54 pm 14:54 Mostly Cloudy 64 17.8 43 6.1 46 46 S 16 26 30.23 1024 10 16 0.00 0.00
3:54 pm 15:54 Mostly Cloudy 66 18.9 43 6.1 43 43 S 16 26 30.20 1023 10 16 0.00 0.00
4:54 pm 16:54 Mostly Cloudy 67 19.4 44 6.7 44 44 S 15 24 30.18 1022 10 16 0.00 0.00
5:54 pm 17:54 Mostly Sunny 67 19.4 43 6.1 42 42 S 16 26 30.15 1021 10 16 0.00 0.00
6:54 pm 18:54 Sunny 63 17.2 43 6.1 48 48 S 17 28 30.14 1021 10 16 0.00 0.00
7:54 pm 19:54 Clear 58 14.4 43 6.1 58 58 S 12 19 30.14 1021 10 16 0.00 0.00
8:54 pm 20:54 Clear 56 13.3 44 6.7 65 65 S 13 20 30.14 1021 10 16 0.00 0.00
9:54 pm 21:54 Clear 54 12.2 43 6.1 67 67 S 13 20 30.15 1021 10 16 0.00 0.00
10:54 pm 22:54 Clear 53 11.7 43 6.1 69 69 S 13 20 30.14 1021 10 16 0.00 0.00
11:54 pm 23:54 Hazy 52 11.1 42 5.6 69 69 S 12 19 30.13 1020 5 8 0.00 0.00

Powered by Vaisala Xweather